SL-16 DEB, 22417

Orbit data source: Space-Track

SL-16 DEB, 22417 is space debris in LEO originally from a launch on Fri, 25 Dec 1992 UTC launched from the Tyuratam Missile And Space Complex (TTMTR). Debris objects in space refer to the collection of defunct objects orbiting the Earth. Examples of debris include non-operational satellites, rocket bodies, and fragments generated from explosions, collisions, or faulty payload assembly.

Loading next visibility...
Identifier
22417, 1992-093DJ
Orbit
LEO
Country
Flag of CISCIS
Related business
Manufacturer
Unknown
Mission
Spacecraft
Bus & Motor
Unknown
Mass
Unknown
Launch date (UTC)
1992-12-25 (33 years ago)
Launch vehicle
Unknown
Launch site
Tyuratam Missile And Space Complex (TTMTR)
Object type
Payload
Rocket body
Debris
Shape & HBR
Unknown shape, 0.9 m
Radar Cross Section
Medium (>0.1 m² and <1 m²)

Expand to show TLE details & history
Last TLE update: 9 hours ago

TLE from 9 hours ago
0 SL-16 DEB
1 22417U 92093DJ  26133.37784703  .00000037  00000-0  55245-4 0  9998
2 22417  71.1817 105.3167 0085174 141.1944  20.2574 13.97673090700771
Epoch: 2026-05-13T09:04Z
TLE epoch observation values (Epoch: 2026-05-13T09:04:05.983Z)
Latitude
17.19988°
Longitude
-87.87018°
Altitude
845.536 km
Speed
7.461 km/s
True Right ascension
18h 37m 10s
True Declination
17° 06' 15"
Sunlit
Object was in full shadow at epoch
Visualization orbit readout
Latitude
Unknown
Longitude
Unknown
Altitude
Unknown
Speed
Unknown
Apparent Right ascension
Unknown
Apparent Declination
Unknown
Sunlit
N/A
Visualization observer readout
Local Sidereal Time
02:59:27
Azimuth
Unknown
Elevation
Unknown
Doppler factor
Unknown
Orbital elements
Apogee altitude
961.777 km
Perigee altitude
837.799 km
Semi-major axis
7,277.925 km
Eccentricity
0.00852
Inclination
71.1817°
RAAN
105.3167°
Arg. of periapsis
141.1944°
True anomaly
20.59874°
Mean anomaly
20.2574°
Eccentric anomaly
20.42773°
Mean motion
3.49568 °/min
Orbital period
102.98 mins
BSTAR
0.000055245
Loading maneuver chart data...
Computing Atmospheric mass density...
Loading historical data...
Loading historical data...
Loading historical data...
Loading historical data...
Loading historical data...
Loading historical data...
Loading historical data...

Documentation

Showing up to 5 results
|